x

Chambers Island, Wi (cbrw3) Weather Station

8:40am - Tue 23rd May 2017 All times are CDT. -5 hours from GMT.

  • Wind
    8mph, 9mph gusts
  • Air Temp 47°f
  • Sea Pressure 1010.5mb
  • Chambers Island, Wi
  • Chambers Island, Wi

More Historic Weather Station data

Upgrade to MSW Pro to gain access to the past 30 days of data for over 8000 Wavebouys and Weather Stations around the globe.

Join Pro

Comparision Forecast

View Surf forecast
   
Tue 05/23 8:40am 8 9 mph 1010.5mb 47f
8:30am 7 8 mph 1010.5mb 47f
8:20am 6 7 mph 1010.5mb 47f
8:10am 5 6 mph 1010.5mb 47f
8:00am 7 9 mph 1010.2mb 47f
7:40am 8 9 mph 1009.8mb 47f
7:30am 7 8 mph 1009.8mb 47f
7:20am 6 8 mph 1010.2mb 47f
7:10am 7 8 mph 1010.2mb 47f
7:00am 6 8 mph 1010.2mb 47f
6:40am 5 6 mph 1010.2mb 47f
6:30am 6 8 mph 1009.8mb 47f
6:20am 6 8 mph 1009.5mb 47f
6:10am 7 9 mph 1009.5mb 47f
6:00am 1 6 mph 1009.5mb 47f
5:40am 5 5 mph 1009.1mb 47f
5:30am  -  2 mph 1009.1mb 46f
5:20am 1 3 mph 1009.1mb 45f
5:10am  -  2 mph 1009.1mb 44f
5:00am  -  0 mph 1009.1mb 44f
4:40am  -  0 mph 1009.1mb 44f
4:30am  -  0 mph 1009.1mb 43f
4:20am  -  2 mph 1009.1mb 43f
4:10am 1 2 mph 1009.1mb 43f
4:00am  -  0 mph 1009.1mb 42f
3:40am  -  0 mph 1009.1mb 42f
3:30am  -  0 mph 1009.1mb 41f
3:20am  -  0 mph 1009.5mb 41f
3:10am  -  0 mph 1009.5mb 43f
3:00am  -  3 mph 1009.5mb 44f
2:40am  -  0 mph 1009.8mb 42f
2:30am  -  0 mph 1009.8mb 43f
2:20am  -  5 mph 1010.2mb 42f
2:10am 3 5 mph 1010.2mb 42f
2:00am  -  2 mph 1010.2mb 42f
1:40am  -  1 mph 1010.2mb 42f
1:30am  -  1 mph 1010.5mb 41f
1:20am  -  0 mph 1010.2mb 43f
1:10am  -  0 mph 1010.2mb 42f
1:00am  -  3 mph 1010.5mb 42f
12:40am 2 3 mph 1010.5mb 42f
12:30am  -  1 mph 1010.5mb 42f
12:20am  -  0 mph 1010.5mb 42f
12:10am  -  2 mph 1010.8mb 43f
12:00am  -  2 mph 1010.8mb 42f
Mon 05/22 11:40pm  -  0 mph 1010.8mb 43f
11:30pm  -  0 mph 1010.8mb 44f
11:20pm  -  1 mph 1010.5mb 44f
11:10pm  -  2 mph 1010.5mb 44f
11:00pm  -  2 mph 1010.5mb 44f
10:40pm  -  0 mph 1010.5mb 45f
10:30pm  -  1 mph 1010.5mb 45f
10:20pm  -  1 mph 1010.5mb 46f
10:10pm  -  3 mph 1010.5mb 46f
10:00pm  -  3 mph 1010.5mb 46f
9:40pm 3 5 mph 1010.8mb 47f
9:30pm  -  0 mph 1010.5mb 47f
9:20pm  -  0 mph 1010.5mb 47f
9:10pm  -  0 mph 1010.5mb 49f
9:00pm  -  3 mph 1010.5mb 49f
8:40pm 2 3 mph 1010.2mb 50f
8:30pm  -  1 mph 1009.8mb 50f
8:20pm  -  5 mph 1009.8mb 51f
8:10pm 5 8 mph 1009.8mb 52f
8:00pm 6 7 mph 1009.8mb 52f
7:40pm 5 9 mph 1009.8mb 52f
7:30pm 8 10 mph 1009.5mb 51f
7:20pm 9 11 mph 1009.5mb 52f
7:10pm 10 11 mph 1009.5mb 51f
7:00pm 9 10 mph 1009.5mb 51f
6:40pm 7 8 mph 1009.5mb 51f
6:30pm 6 7 mph 1009.5mb 50f
6:20pm 3 10 mph 1009.8mb 52f
6:10pm 8 15 mph 1009.1mb 54f
6:00pm 14 25 mph 1009.5mb 55f
5:40pm 6 13 mph 1007.8mb 57f
5:30pm 6 11 mph 1007.8mb 58f
5:20pm 5 13 mph 1007.8mb 59f
5:10pm 7 13 mph 1008.1mb 59f
5:00pm 7 18 mph 1008.1mb 62f
4:40pm 9 17 mph 1008.1mb 62f
4:30pm 3 16 mph 1008.5mb 62f
4:20pm 8 15 mph 1008.5mb 62f
4:10pm 7 17 mph 1008.5mb 60f
4:00pm 9 16 mph 1008.8mb 61f
3:40pm 8 17 mph 1008.8mb 61f
3:30pm 6 14 mph 1009.1mb 61f
3:20pm 8 17 mph 1009.1mb 61f
3:10pm 8 14 mph 1009.1mb 59f
3:00pm 8 17 mph 1009.5mb 59f
2:40pm 8 18 mph 1009.5mb 57f
2:30pm 10 20 mph 1009.5mb 58f
2:20pm 7 16 mph 1009.5mb 58f
2:10pm 8 16 mph 1009.5mb 57f
2:00pm 7 16 mph 1009.5mb 57f
1:40pm 9 15 mph 1009.5mb 57f
1:30pm 8 16 mph 1009.5mb 56f
1:20pm 9 15 mph 1009.5mb 57f
1:10pm 7 14 mph 1009.5mb 57f
1:00pm 7 16 mph 1009.5mb 59f
12:40pm 8 17 mph 1009.8mb 58f
12:30pm 7 16 mph 1009.8mb 57f
12:20pm 11 18 mph 1009.8mb 56f
12:10pm 8 16 mph 1009.8mb 56f
12:00pm 8 15 mph 1009.8mb 56f
11:40am 8 16 mph 1010.2mb 56f
11:30am 7 16 mph 1010.2mb 55f
11:20am 9 18 mph 1010.2mb 55f
11:10am 8 17 mph 1010.2mb 53f
11:00am 6 17 mph 1010.2mb 53f
10:40am 7 16 mph 1010.2mb 53f
10:30am 8 14 mph 1010.2mb 53f
10:20am 7 15 mph 1010.2mb 52f
10:10am 9 16 mph 1010.2mb 52f
10:00am 6 15 mph 1010.2mb 51f
9:50am 10 16 mph 1009.8mb 52f
9:40am 10 16 mph 1009.8mb 51f
9:30am 8 14 mph 1009.8mb 51f
9:20am 7 15 mph 1009.8mb 50f
9:10am 8 17 mph 1009.8mb 50f
9:00am 7 11 mph 1009.8mb 50f
8:50am 7 15 mph 1009.8mb 48f
8:40am 7 13 mph 1009.8mb 48f
8:30am 8 13 mph 1009.8mb 47f
8:20am 7 16 mph 1009.8mb 47f
8:10am 10 17 mph 1009.8mb 47f
8:00am 8 14 mph 1009.5mb 47f
7:50am 9 16 mph 1009.8mb 47f
7:40am 7 18 mph 1009.8mb 47f
7:30am 7 16 mph 1009.8mb 47f
7:20am 8 16 mph 1009.5mb 47f
7:10am 8 14 mph 1009.5mb 47f
7:00am 8 15 mph 1009.1mb 47f
6:50am 9 16 mph 1009.1mb 47f
6:40am 9 16 mph 1009.1mb 47f
6:30am 7 14 mph 1009.1mb 47f
6:20am 7 14 mph 1009.1mb 47f
6:10am 8 15 mph 1009.1mb 47f
6:00am 8 13 mph 1009.1mb 47f
5:50am 6 13 mph 1009.1mb 47f
5:40am 9 14 mph 1008.8mb 47f
5:30am 6 13 mph 1008.8mb 47f
5:20am 7 15 mph 1008.8mb 47f
5:10am 6 14 mph 1008.5mb 47f
5:00am 7 15 mph 1008.5mb 47f
4:50am 11 21 mph 1008.5mb 47f
4:40am 8 15 mph 1008.5mb 48f
4:30am 5 13 mph 1008.5mb 48f
4:20am 9 16 mph 1008.5mb 48f
4:10am 8 13 mph 1008.5mb 48f
4:00am 7 16 mph 1008.5mb 47f
3:50am 6 14 mph 1008.5mb 47f
3:40am 7 11 mph 1008.5mb 47f
3:30am 8 14 mph 1008.5mb 47f
3:20am 7 14 mph 1008.5mb 48f
3:10am 6 13 mph 1008.5mb 48f
3:00am 11 17 mph 1008.5mb 49f
2:50am 8 15 mph 1008.5mb 49f
2:40am 7 14 mph 1008.5mb 49f
2:30am 10 16 mph 1008.5mb 49f
2:20am 8 14 mph 1008.5mb 49f
2:10am 7 10 mph 1008.8mb 49f
2:00am 5 11 mph 1008.8mb 49f
1:50am 5 14 mph 1008.8mb 49f
1:40am 7 14 mph 1008.8mb 49f
1:30am 10 17 mph 1009.1mb 49f
1:20am 7 14 mph 1009.1mb 49f
1:10am 7 16 mph 1009.1mb 49f
1:00am 9 16 mph 1009.1mb 49f
12:50am 9 14 mph 1009.1mb 49f
12:40am 6 15 mph 1009.5mb 50f
12:30am 9 15 mph 1009.5mb 50f
12:20am 7 14 mph 1009.5mb 50f
12:10am 8 13 mph 1009.5mb 50f
12:00am 6 13 mph 1009.5mb 50f
Sun 05/21 11:50pm 8 17 mph 1009.5mb 50f
11:40pm 10 16 mph 1009.5mb 51f
11:30pm 8 15 mph 1009.8mb 51f
11:20pm 8 14 mph 1009.8mb 51f
11:10pm 8 13 mph 1009.8mb 51f
11:00pm 8 15 mph 1009.5mb 51f
10:50pm 7 13 mph 1009.8mb 51f
10:40pm 7 10 mph 1009.5mb 51f
10:30pm 6 15 mph 1009.8mb 51f
10:20pm 7 17 mph 1009.5mb 52f
10:10pm 8 15 mph 1009.5mb 52f
10:00pm 7 16 mph 1009.5mb 52f
9:50pm 9 14 mph 1009.5mb 52f
9:40pm 9 17 mph 1009.5mb 52f
9:30pm 8 15 mph 1009.5mb 52f
9:20pm 10 17 mph 1009.1mb 52f
9:10pm 9 20 mph 1009.5mb 52f
9:00pm 7 14 mph 1009.1mb 52f
8:50pm 8 16 mph 1009.1mb 53f
8:40pm 8 16 mph 1009.1mb 53f
8:30pm 7 16 mph 1009.1mb 53f
8:20pm 8 16 mph 1009.1mb 53f
8:10pm 8 14 mph 1009.1mb 53f
8:00pm 10 17 mph 1009.1mb 54f
7:50pm 6 13 mph 1009.1mb 53f
7:40pm 7 15 mph 1009.1mb 53f
7:30pm 9 14 mph 1008.8mb 53f
7:20pm 9 15 mph 1008.8mb 54f
7:10pm 9 18 mph 1008.8mb 54f
7:00pm 9 17 mph 1008.8mb 54f
6:50pm 8 17 mph 1008.8mb 54f
6:40pm 8 15 mph 1008.8mb 54f
6:30pm 7 15 mph 1008.8mb 54f
6:20pm 7 14 mph 1008.8mb 55f
6:10pm 8 15 mph 1008.8mb 54f
6:00pm 10 16 mph 1008.8mb 53f
5:50pm 10 17 mph 1008.8mb 55f
5:40pm 8 14 mph 1008.5mb 55f
5:30pm 7 10 mph 1008.8mb 56f
5:20pm 3 8 mph 1008.5mb 56f
5:10pm 6 9 mph 1008.8mb 56f
5:00pm 3 6 mph 1008.8mb 55f
4:50pm 3 9 mph 1008.8mb 55f
4:40pm 6 10 mph 1008.8mb 54f
4:30pm 5 11 mph 1008.8mb 55f
4:20pm 5 10 mph 1008.8mb 56f
4:10pm 2 7 mph 1008.8mb 56f
4:00pm 1 3 mph 1008.8mb 56f
3:50pm  -  5 mph 1008.8mb 56f
3:40pm 2 5 mph 1008.8mb 54f
3:30pm 3 5 mph 1008.8mb 54f
3:20pm 2 5 mph 1008.8mb 54f
3:10pm 5 6 mph 1008.5mb 53f
3:00pm 3 8 mph 1008.5mb 52f
2:50pm 5 6 mph 1008.8mb 51f
2:40pm  -  3 mph 1008.8mb 51f
2:30pm 3 7 mph 1008.8mb 50f
2:20pm 6 7 mph 1008.8mb 50f
2:10pm  -  3 mph 1008.8mb 50f
2:00pm 3 5 mph 1008.5mb 47f
1:50pm 5 5 mph 1008.5mb 50f
1:40pm 3 5 mph 1008.5mb 50f
1:30pm 5 6 mph 1008.8mb 50f
1:20pm 5 7 mph 1008.8mb 50f
1:10pm 6 8 mph 1008.5mb 49f
1:00pm 7 8 mph 1008.5mb 48f
12:50pm 7 8 mph 1008.5mb 49f
12:40pm 6 7 mph 1008.5mb 48f
12:30pm 6 7 mph 1008.8mb 48f
12:20pm 5 6 mph 1008.8mb 49f
12:10pm 5 6 mph 1008.8mb 49f
12:00pm 5 5 mph 1008.5mb 48f
11:50am 5 7 mph 1008.5mb 48f
11:40am 6 6 mph 1008.8mb 48f
11:30am 3 5 mph 1008.8mb 49f
11:20am 2 3 mph 1008.8mb 48f
11:10am 2 8 mph 1009.1mb 48f
11:00am 7 9 mph 1008.8mb 47f
10:50am 7 8 mph 1008.8mb 47f
10:40am 6 7 mph 1008.8mb 47f
10:30am 3 6 mph 1009.1mb 48f
10:20am 3 10 mph 1009.1mb 47f
10:10am 9 10 mph 1008.8mb 47f
10:00am 7 8 mph 1009.5mb 48f
9:50am 6 6 mph 1009.5mb 47f
9:40am 5 6 mph 1009.5mb 47f
9:30am 5 7 mph 1009.5mb 47f
9:20am 7 10 mph 1009.8mb 46f
9:10am 9 10 mph 1010.2mb 46f
9:00am 7 9 mph 1010.5mb 46f
8:50am 7 10 mph 1010.2mb 46f
8:40am 9 10 mph 1010.2mb 46f
8:30am 9 10 mph 1010.2mb 46f
8:20am 5 7 mph 1010.5mb 47f
8:10am 2 10 mph 1010.5mb 48f
8:00am 6 8 mph 1010.2mb 47f
7:50am 7 9 mph 1010.5mb 46f
7:40am 6 7 mph 1010.5mb 46f
7:30am 6 9 mph 1010.8mb 46f
7:20am 9 13 mph 1010.8mb 46f
7:10am 9 10 mph 1010.5mb 46f
7:00am 6 8 mph 1010.8mb 46f
6:50am 7 8 mph 1010.5mb 47f
6:40am 5 8 mph 1010.8mb 46f
6:30am 6 9 mph 1011.2mb 46f
6:20am 6 9 mph 1011.2mb 46f
6:10am 7 11 mph 1011.2mb 46f
6:00am 8 10 mph 1010.8mb 45f
5:50am 9 10 mph 1011.2mb 45f
5:40am 8 9 mph 1011.2mb 45f
5:30am 8 9 mph 1011.5mb 45f
5:20am 8 10 mph 1011.2mb 45f
5:10am 8 11 mph 1011.5mb 45f
5:00am 10 11 mph 1011.5mb 45f
4:50am 6 8 mph 1012.2mb 46f
4:40am 6 8 mph 1012.2mb 46f
4:30am 7 8 mph 1011.9mb 46f
4:20am 6 7 mph 1012.2mb 46f
4:10am 5 9 mph 1012.2mb 46f
4:00am 7 8 mph 1011.9mb 46f
3:50am 7 8 mph 1012.2mb 46f
3:40am 6 8 mph 1012.2mb 46f
3:30am 6 9 mph 1012.5mb 46f
3:20am 6 8 mph 1012.9mb 46f
3:10am 7 9 mph 1012.9mb 46f
3:00am 7 9 mph 1012.9mb 46f
2:50am 6 8 mph 1013.2mb 46f
2:40am 6 9 mph 1013.2mb 46f
2:30am 8 10 mph 1013.2mb 46f
2:20am 8 11 mph 1013.2mb 46f
2:10am 9 11 mph 1013.5mb 46f
2:00am 9 10 mph 1013.5mb 46f
1:50am 7 10 mph 1013.5mb 46f
1:40am 7 11 mph 1013.9mb 45f
1:30am 7 10 mph 1014.2mb 45f
1:20am 7 9 mph 1014.2mb 45f
1:10am 7 11 mph 1014.2mb 45f
1:00am 8 10 mph 1014.6mb 45f
12:50am 7 11 mph 1014.6mb 45f
12:40am 8 11 mph 1014.9mb 45f
12:30am 8 11 mph 1015.2mb 45f
12:20am 8 10 mph 1015.2mb 45f
12:10am 7 10 mph 1015.6mb 45f
12:00am 8 11 mph 1015.6mb 45f
Sat 05/20 11:50pm 8 13 mph 1015.6mb 44f
11:40pm 9 15 mph 1015.6mb 44f
11:30pm 10 13 mph 1015.6mb 44f
11:20pm 8 15 mph 1015.9mb 44f
11:10pm 13 15 mph 1015.9mb 44f
11:00pm 10 14 mph 1015.9mb 44f
10:50pm 11 14 mph 1016.3mb 44f
10:40pm 9 14 mph 1016.3mb 44f
10:30pm 10 15 mph 1016.6mb 44f
10:20pm 11 16 mph 1016.6mb 44f
10:10pm 14 17 mph 1016.6mb 44f
10:00pm 11 16 mph 1016.9mb 44f
9:50pm 13 17 mph 1016.9mb 44f
9:40pm 15 18 mph 1016.9mb 44f
9:30pm 14 18 mph 1016.9mb 44f
9:20pm 14 22 mph 1016.9mb 44f
9:10pm 14 22 mph 1016.9mb 44f
9:00pm 16 23 mph 1016.9mb 44f
8:50pm 15 22 mph 1017.3mb 44f
8:40pm 13 18 mph 1017.3mb 44f
8:30pm 13 20 mph 1017.6mb 45f
8:20pm 14 18 mph 1017.6mb 45f
8:10pm 15 20 mph 1017.3mb 45f
8:00pm 15 18 mph 1017.3mb 45f
7:50pm 16 22 mph 1017.3mb 45f
7:40pm 14 18 mph 1017.6mb 46f
7:30pm 9 14 mph 1017.9mb 46f
7:20pm 11 16 mph 1017.6mb 46f
7:10pm 11 16 mph 1017.9mb 46f
7:00pm 10 14 mph 1017.6mb 46f
6:50pm 10 15 mph 1017.6mb 47f
6:40pm 11 16 mph 1017.6mb 46f
6:30pm 13 17 mph 1017.3mb 46f
6:20pm 13 16 mph 1017.3mb 47f
6:10pm 13 16 mph 1017.3mb 47f
6:00pm 11 16 mph 1017.6mb 47f
5:50pm 13 18 mph 1017.9mb 47f
5:40pm 13 20 mph 1017.9mb 47f
5:30pm 16 20 mph 1017.6mb 47f
5:20pm 14 18 mph 1017.9mb 48f
5:10pm 14 17 mph 1017.9mb 47f
5:00pm 14 17 mph 1018.3mb 47f
4:50pm 14 18 mph 1018.6mb 48f
4:40pm 10 15 mph 1018.6mb 47f
4:30pm 11 18 mph 1019mb 47f
4:20pm 13 18 mph 1019mb 47f
4:10pm 13 20 mph 1019mb 48f
4:00pm 13 22 mph 1019mb 48f
3:50pm 15 20 mph 1019.3mb 48f
3:40pm 16 22 mph 1019.6mb 48f
3:30pm 13 17 mph 1019.6mb 48f
3:20pm 15 20 mph 1019.6mb 48f
3:10pm 15 20 mph 1020mb 48f
3:00pm 17 20 mph 1020.3mb 49f
2:50pm 15 21 mph 1020.3mb 48f
2:40pm 17 24 mph 1020.7mb 48f
2:30pm 17 21 mph 1020.7mb 48f
2:20pm 15 21 mph 1021mb 48f
2:10pm 15 21 mph 1021mb 48f
2:00pm 15 20 mph 1021mb 48f
1:50pm 14 21 mph 1021mb 47f
1:40pm 16 24 mph 1021.3mb 47f
1:30pm 17 23 mph 1021.7mb 47f
1:20pm 17 23 mph 1021.7mb 47f
1:10pm 18 23 mph 1021.7mb 47f
1:00pm 17 22 mph 1021.7mb 47f
12:50pm 17 23 mph 1021.7mb 47f
12:40pm 16 23 mph 1022mb 47f
12:30pm 16 24 mph 1022.4mb 47f
12:20pm 15 23 mph 1022.7mb 47f
12:10pm 14 20 mph 1022.7mb 47f
12:00pm 15 24 mph 1023mb 47f
11:50am 13 20 mph 1023mb 46f
11:40am 15 24 mph 1023.4mb 46f
11:30am 18 23 mph 1023.4mb 46f
11:20am 17 25 mph 1023.4mb 46f
11:10am 17 23 mph 1023.7mb 46f
11:00am 17 22 mph 1023.7mb 46f
10:50am 14 20 mph 1023.7mb 46f
10:40am 15 21 mph 1024mb 46f
10:30am 14 20 mph 1024mb 46f
10:20am 14 20 mph 1024.4mb 46f
10:10am 14 20 mph 1024.4mb 46f
10:00am 15 21 mph 1024.4mb 46f
9:50am 14 22 mph 1024.4mb 46f
9:40am 14 22 mph 1024.7mb 46f
9:30am 14 18 mph 1025.1mb 46f
9:20am 15 18 mph 1025.1mb 46f
9:10am 15 20 mph 1025.1mb 46f
9:00am 14 20 mph 1025.1mb 46f
8:50am 13 18 mph 1025.1mb 46f
8:40am 16 21 mph 1025.1mb 46f
8:30am 16 22 mph 1025.1mb 46f
8:20am 16 21 mph 1024.7mb 46f
8:10am 16 22 mph 1024.7mb 46f
8:00am 17 21 mph 1024.7mb 46f
7:50am 16 22 mph 1024.7mb 46f
7:40am 15 21 mph 1024.4mb 46f
7:30am 16 23 mph 1024.7mb 46f
7:20am 15 21 mph 1024.7mb 46f
7:10am 14 20 mph 1024.7mb 46f
7:00am 13 18 mph 1024.7mb 46f
6:50am 14 20 mph 1024.7mb 45f
6:40am 15 18 mph 1024.7mb 45f
6:30am 15 20 mph 1025.1mb 45f
6:20am 13 20 mph 1025.1mb 45f
6:10am 13 17 mph 1025.1mb 45f
6:00am 13 17 mph 1025.1mb 45f
5:50am 10 16 mph 1025.1mb 45f
5:40am 8 15 mph 1025.1mb 45f
5:30am 9 13 mph 1025.1mb 44f
5:20am 10 14 mph 1025.1mb 44f
5:10am 10 13 mph 1025.1mb 44f
5:00am 7 14 mph 1025.1mb 44f
4:50am 10 17 mph 1024.7mb 44f
4:40am 11 15 mph 1024.7mb 44f
4:30am 9 13 mph 1025.1mb 44f
4:20am 10 13 mph 1025.1mb 44f
4:10am 10 13 mph 1025.1mb 44f
4:00am 9 13 mph 1025.4mb 44f
3:50am 9 13 mph 1025.4mb 43f
3:40am 10 13 mph 1025.4mb 43f
3:30am 11 15 mph 1025.4mb 43f
3:20am 14 16 mph 1025.4mb 43f
3:10am 11 18 mph 1025.4mb 43f
3:00am 15 18 mph 1025.4mb 43f
2:50am 13 17 mph 1025.4mb 43f
2:40am 13 17 mph 1025.4mb 43f
2:30am 15 17 mph 1025.1mb 43f
2:20am 15 20 mph 1025.1mb 44f
2:10am 15 18 mph 1025.1mb 44f
2:00am 15 18 mph 1025.1mb 44f
1:50am 16 18 mph 1025.4mb 44f
1:40am 14 18 mph 1025.4mb 44f
1:30am 14 17 mph 1025.7mb 44f
1:20am 14 17 mph 1025.7mb 44f
1:10am 13 17 mph 1026.1mb 44f
1:00am 14 17 mph 1026.1mb 44f
12:50am 14 17 mph 1026.1mb 44f
12:40am 16 18 mph 1026.1mb 44f
12:30am 16 20 mph 1026.1mb 44f
12:20am 17 21 mph 1026.1mb 44f
12:10am 18 22 mph 1026.1mb 44f
12:00am 18 22 mph 1026.1mb 44f
Fri 05/19 11:50pm 18 22 mph 1026.1mb 44f
11:40pm 18 21 mph 1025.7mb 44f
11:30pm 18 22 mph 1025.7mb 44f
11:20pm 18 24 mph 1025.7mb 45f
11:10pm 21 24 mph 1025.4mb 45f
11:00pm 22 25 mph 1025.4mb 45f
10:50pm 22 25 mph 1025.1mb 45f
10:40pm 18 23 mph 1025.4mb 45f
10:30pm 18 24 mph 1025.4mb 45f
10:20pm 20 23 mph 1025.1mb 45f
10:10pm 20 24 mph 1025.1mb 46f
10:00pm 18 23 mph 1025.4mb 46f
9:50pm 18 23 mph 1025.4mb 46f
9:40pm 20 23 mph 1025.1mb 46f
9:30pm 18 21 mph 1025.4mb 46f
9:20pm 18 22 mph 1025.4mb 47f
9:10pm 18 23 mph 1025.1mb 47f
9:00pm 18 22 mph 1025.1mb 47f
8:50pm 17 21 mph 1025.1mb 47f
8:40pm 15 18 mph 1025.1mb 47f
8:30pm 16 20 mph 1025.1mb 47f
8:20pm 15 17 mph 1025.1mb 47f
8:10pm 16 20 mph 1025.1mb 47f
8:00pm 17 21 mph 1025.1mb 47f
7:50pm 17 20 mph 1025.1mb 47f
7:40pm 16 20 mph 1025.1mb 47f
7:30pm 15 18 mph 1024.7mb 47f
7:20pm 15 17 mph 1024.7mb 47f
7:10pm 15 17 mph 1024.4mb 47f
7:00pm 15 18 mph 1024.4mb 47f
6:50pm 14 20 mph 1024.4mb 48f
6:40pm 16 18 mph 1024.4mb 48f
6:30pm 16 20 mph 1024mb 48f
6:20pm 17 22 mph 1024mb 48f
6:10pm 15 17 mph 1024mb 48f
6:00pm 14 15 mph 1024mb 48f
5:50pm 10 13 mph 1024.4mb 48f
5:40pm 10 13 mph 1024.4mb 47f
5:30pm 10 14 mph 1024mb 47f
5:20pm 11 16 mph 1023.7mb 47f
5:10pm 10 13 mph 1024.4mb 48f
5:00pm 10 13 mph 1024.7mb 47f
4:50pm 10 13 mph 1024.4mb 47f
4:40pm 9 11 mph 1024.4mb 47f
4:30pm 11 14 mph 1024.4mb 48f
4:20pm 11 14 mph 1024.4mb 47f
4:10pm 10 15 mph 1024.4mb 47f
4:00pm 10 13 mph 1024.4mb 48f
3:50pm 10 14 mph 1024.4mb 48f
3:40pm 11 14 mph 1024.4mb 48f
3:30pm 10 14 mph 1024.4mb 48f